Location: Dal�� Lhota
(48.7500°N, 14.0167°E)
Time: 15:54:21
(UTC+00:00)

A-11 Canister half - Pass Details

Date: 24 July 2021
Orbit: 1526 x 1683 km, 47.3° (Epoch: 16 September)

Event Time Altitude Azimuth Distance (km) Brightness Sun altitude
Rises 19:16:09 0° 290° (WNW) 4,830 13.4 -4.0°
Reaches altitude 10° 19:19:45 10° 281° (W) 3,817 12.3 -4.5°
Maximum altitude 19:27:44 31° 224° (SW) 2,495 10.2 -5.5°
Drops below altitude 10° 19:35:32 10° 168° (SSE) 3,712 10.5 -6.5°
Enters shadow 19:38:16 - 159° (SSE) 4,468 10.9 -6.9°
